RH
38 32 34 72 82 89 92 92 91 82 92 93 95 96 97 91 73 66 63 68 66 64 65 66 60 60 64 72 70 77 86 92 87 85 84 83 81 79 83 85 87 87 89
41 33 40 74 84 86 89 95 89 87 93 90 89 91 90 74 69 68 62 63 64 64 59 58 59 62 72 79 83 85 94 92 88 89 92 93 87 88 86 92 88 91 93
40 35 40 76 80 85 96 94 90 91 93 94 80 80 80 80 73 72 71 71 66 67 64 62 64 67 68 79 85 90 90 96 93 87 88 94 95 95 94 92 93 91 95
59 66 60 79 84 84 91 93 89 91 86 97 82 79 80 77 68 72 71 72 65 67 73 71 72 75 83 86 88 90 92 94 93 92 92 93 92 94 98 94 92 92 90
63 65 61 64 77 84 91 93 91 91 96 94 90 80 74 69 68 70 74 71 69 69 74 71 74 86 84 89 92 96 96 95 95 94 97 95 96 94 96 97 96 94 96
73 58 53 68 82 95 96 96 93 90 92 92 93 82 77 80 76 75 76 78 75 74 83 82 83 92 91 92 94 95 93 94 94 95 95 95 96 98 97 96 90 95 94
81 66 66 78 84 96 96 96 96 94 96 98 95 90 84 82 78 79 75 84 80 82 93 90 93 93 94 93 95 96 96 95 96 95 97 96 95 94 94 90 88 93 94
76 72 84 82 85 92 96 94 96 98 96 98 98 97 96 83 83 82 78 85 81 85 94 90 93 95 95 96 96 96 97 97 97 96 97 97 96 93 90 89 92 97 95
91 87 81 81 80 92 94 94 93 91 93 97 96 95 98 90 89 86 86 86 89 94 96 94 95 96 96 96 95 97 98 97 98 97 97 97 96 95 94 96 96 92 96
88 92 93 78 78 95 92 92 94 96 97 97 95 94 94 96 94 94 94 94 95 95 96 95 96 97 96 96 96 97 97 98 99 98 95 95 93 92 95 95 94 93 95
92 94 96 81 91 94 96 96 96 97 98 97 98 98 99 98 99 98 96 94 95 95 95 94 95 96 96 96 98 98 99 97 97 95 92 90 88 95 96 96 95 95 95
98 98 88 97 95 95 96 97 98 97 96 96 98 98 98 98 99 99 99 99 96 94 94 92 94 95 96 97 97 98 98 98 96 96 91 88 89 93 94 96 93 95 95
95 96 97 97 97 98 98 98 99 99 98 97 96 98 98 99 99 99 99 99 99 99 99 98 98 97 98 98 98 96 96 96 95 93 91 91 90 94 96 96 96 95 94
94 93 95 97 97 97 98 98 98 98 98 98 96 98 99 99 99 99 99 98 98 99 99 98 98 98 98 97 98 97 98 97 94 94 91 88 87 93 94 95 95 94 95
92 93 93 95 96 96 95 94 94 96 98 98 98 99 99 99 99 99 99 99 99 99 99 99 99 99 98 98 98 97 94 93 92 90 86 89 89 88 87 92 95 94 95
88 87 87 87 90 92 91 89 92 90 91 96 98 96 97 98 99 98 97 94 93 91 90 89 88 86 86 93 92 86 86 89 87 90 90 88 87 87 84 85 86 90 94
88 88 88 90 88 87 86 88 85 81 84 87 88 89 89 91 92 92 92 98 98 96 95 93 90 92 90 92 92 91 90 90 89 88 92 88 84 88 90 83 82 82 81
87 81 78 77 77 75 76 75 77 80 85 89 90 86 84 87 88 91 93 94 94 97 98 99 98 97 92 87 87 86 88 87 86 85 85 81 87 88 88 92 93 93 92
87 87 82 79 76 76 76 77 79 78 81 80 81 83 83 85 86 91 92 92 93 94 95 96 96 96 94 88 89 86 86 87 87 82 82 82 88 85 81 91 94 92 91
87 89 85 84 85 83 79 81 84 84 87 85 87 87 87 88 92 92 94 96 92 94 93 96 95 93 95 90 90 87 86 88 87 86 84 82 82 83 81 93 94 95 92
87 84 85 90 90 85 83 91 90 94 89 86 86 87 89 90 93 94 96 96 96 94 93 91 91 94 94 94 84 83 85 87 88 87 88 85 81 83 82 86 94 92 86
85 85 88 91 89 90 89 95 97 93 88 88 89 90 91 91 92 93 95 94 93 94 95 93 94 90 91 91 88 85 85 80 86 85 83 84 84 81 79 83 85 83 81
84 83 87 88 90 88 89 94 98 94 89 89 92 92 87 88 92 92 94 96 95 96 95 95 95 93 92 93 88 88 86 86 88 87 85 83 84 79 79 78 79 79 95
84 82 83 88 92 90 89 91 91 92 94 96 97 97 96 94 91 85 85 91 93 94 94 95 96 95 94 91 88 92 92 90 93 89 92 86 86 83 85 85 84 93 96
81 81 83 85 87 85 86 87 86 88 92 93 94 94 96 97 97 95 95 97 92 96 94 92 92 93 95 91 84 90 94 96 93 95 97 99 99 98 97 94 92 92 94
86 86 84 84 84 88 92 92 89 89 92 92 94 95 95 96 96 97 96 86 90 92 95 96 98 96 95 95 96 96 93 92 92 98 99 98 98 98 96 94 95 95 86
Wind_Speed
17 19 15 9 10 10 11 11 10 11 9 11 12 12 12 10 12 11 16 12 13 16 14 10 11 9 8 6 6 3 4 2 3 3 2 1 1 1 2 3 3 5 4
17 18 13 13 11 12 13 12 10 13 10 13 11 10 13 12 12 12 14 13 13 14 14 13 11 10 7 7 6 5 3 3 3 3 2 2 2 3 2 3 3 2 2
14 17 14 14 13 12 11 13 14 9 7 15 13 12 12 8 8 11 9 10 13 12 11 11 10 10 8 7 6 6 6 4 1 3 4 2 3 2 1 1 1 2 3
8 7 11 9 11 10 12 13 15 9 12 13 10 16 12 14 11 10 11 10 15 12 12 11 10 10 6 8 7 6 5 5 5 2 2 3 4 3 1 1 1 1 0
11 10 12 12 10 11 11 11 11 8 8 13 10 12 13 11 11 10 12 11 11 12 12 13 12 9 7 8 8 6 6 4 4 3 3 1 1 3 3 1 2 3 2
9 9 9 9 9 8 10 11 14 13 8 7 15 16 15 12 11 12 12 9 10 9 11 11 11 9 9 10 8 7 8 5 5 4 4 4 3 3 3 2 3 3 3
5 6 7 6 7 10 13 13 13 14 12 9 14 11 13 14 15 15 12 12 10 9 9 11 11 9 9 9 9 8 7 6 5 5 4 3 3 3 3 4 2 2 2
3 5 7 7 7 13 12 12 12 9 9 12 7 7 13 12 12 14 13 11 11 11 12 12 11 10 9 8 7 6 5 5 4 5 4 3 4 3 3 4 4 1 1
5 5 5 6 10 15 13 15 15 9 11 10 10 8 12 17 15 16 13 11 12 9 10 11 10 10 9 10 9 7 6 5 4 5 5 4 4 4 3 3 4 3 2
5 5 6 10 13 12 12 11 12 11 14 15 13 13 10 10 8 13 13 12 12 13 12 11 11 10 9 10 9 6 6 7 5 4 7 5 4 4 3 3 3 3 4
6 7 5 12 14 11 9 9 6 8 13 12 9 12 8 13 8 8 10 12 13 13 13 12 12 11 11 10 8 7 7 8 6 5 7 6 5 4 4 3 2 3 3
9 5 9 14 17 12 9 8 6 8 12 12 11 10 11 9 8 8 7 6 10 10 12 12 12 11 11 9 9 8 7 6 9 7 6 5 4 5 5 4 3 3 2
13 17 18 17 15 11 9 8 6 7 10 9 12 9 10 8 8 6 6 6 5 7 7 8 11 12 9 8 7 8 9 8 6 8 8 7 6 5 3 3 4 4 3
20 19 19 16 16 13 12 12 11 14 10 9 11 7 8 7 6 4 6 8 7 6 7 8 7 7 9 10 9 8 7 6 5 6 8 7 7 7 6 5 5 5 4
22 20 20 18 15 16 15 14 14 12 11 11 10 8 8 6 7 5 5 6 7 6 7 7 6 8 10 8 9 9 11 11 7 7 8 6 7 8 6 4 4 5 4
17 21 19 18 18 16 14 13 13 12 12 11 10 9 8 8 6 6 6 7 6 5 6 6 7 6 2 9 13 14 11 10 10 9 7 6 9 8 9 9 8 6 5
19 16 17 15 14 13 12 12 12 11 11 11 10 9 8 8 6 6 6 6 5 5 5 6 5 4 3 12 13 14 8 8 8 9 8 6 4 7 7 9 8 6 6
15 14 13 13 12 12 13 13 12 10 11 10 9 8 8 8 7 7 6 5 4 4 4 6 5 5 1 9 12 13 8 7 7 9 8 8 7 6 7 6 5 5 4
10 11 11 10 12 12 12 12 11 10 10 10 8 6 6 6 6 5 5 4 5 4 4 4 4 4 1 7 10 7 6 7 6 6 6 7 7 10 11 6 6 4 2
10 11 11 12 13 12 10 11 10 9 10 7 6 6 6 6 6 5 4 4 3 4 3 4 4 4 3 3 7 4 3 5 4 4 4 8 7 12 11 6 5 4 3
10 9 11 11 10 9 9 11 9 9 6 6 6 7 6 6 5 4 3 3 4 5 3 3 3 3 4 2 5 6 3 4 5 5 4 3 10 12 10 8 5 5 5
9 9 9 9 8 7 7 9 11 6 5 6 6 6 6 4 4 5 4 4 3 3 2 2 1 0 1 6 8 9 3 5 4 4 3 5 11 10 9 6 7 6 6
6 6 7 8 8 9 7 10 6 6 6 8 8 7 6 5 4 4 4 3 2 1 0 2 2 3 2 3 10 12 10 6 3 4 6 9 10 10 7 8 8 8 4
4 5 6 6 4 6 7 6 6 7 8 7 6 5 5 6 6 4 3 2 1 1 2 3 3 3 3 3 3 4 5 10 5 6 5 8 8 9 7 5 5 3 4
4 4 5 5 5 5 8 6 4 3 5 5 4 5 4 5 4 3 2 2 2 3 3 2 2 2 3 3 6 7 5 5 5 5 3 3 3 4 4 3 4 3 4
2 3 5 6 6 6 6 6 6 6 5 4 5 5 4 4 4 4 4 6 5 7 7 7 5 2 4 4 5 5 10 11 12 5 4 5 6 7 6 6 5 5 8
Wind_Direction
248 236 230 202 192 183 179 177 186 180 163 210 198 205 176 181 172 169 166 156 158 166 163 171 170 154 156 159 156 133 141 85 132 105 44 325 328 136 95 98 82 62 67
252 233 214 192 193 189 190 177 212 182 175 196 189 188 172 175 163 166 173 166 158 156 165 165 158 154 148 153 155 146 139 130 159 133 123 135 13 30 73 82 91 90 56
238 226 208 194 200 196 193 184 199 182 141 206 182 165 161 166 147 164 164 163 159 153 150 153 154 157 159 167 160 155 149 139 101 163 150 121 184 142 313 47 53 56 45
230 232 190 193 200 195 197 203 194 192 165 217 183 158 155 164 164 161 159 159 161 151 147 153 154 165 160 162 163 162 161 137 151 137 105 95 137 155 198 339 356 36 8
224 205 211 204 198 197 191 201 200 178 131 202 193 162 169 163 159 158 159 156 159 156 156 164 166 166 167 161 154 150 149 138 137 145 135 97 75 119 133 150 338 332 248
222 207 203 181 192 174 172 184 187 174 174 135 183 168 164 163 164 164 166 159 167 164 160 161 166 158 157 154 151 141 150 148 146 150 147 153 165 181 163 132 205 211 268
235 179 173 177 191 174 183 165 169 167 169 125 207 179 173 167 170 166 171 162 163 167 163 153 158 158 156 150 148 148 151 150 155 158 163 149 172 187 155 128 166 161 281
255 215 196 198 192 181 165 139 157 131 156 132 205 179 248 193 173 175 169 166 168 170 162 159 159 152 149 143 139 139 147 155 161 167 158 143 172 150 130 145 137 130 295
303 268 226 192 192 177 150 144 139 140 151 150 178 217 189 203 182 168 166 164 160 155 155 154 152 152 151 147 149 154 155 150 153 174 151 160 128 109 105 107 118 151 169
318 263 238 183 184 154 137 142 139 144 137 138 152 199 177 172 174 153 156 165 154 149 156 156 159 158 160 154 158 156 167 161 159 154 159 127 99 93 112 137 138 135 160
259 222 202 175 158 130 134 130 113 147 113 113 114 117 95 130 128 122 150 171 161 156 169 164 164 166 165 163 157 158 154 153 143 154 134 113 124 138 121 122 123 146 152
47 183 159 148 118 116 112 112 122 123 126 128 127 119 113 118 122 130 126 150 147 152 165 170 171 171 172 167 161 159 165 155 163 144 100 127 131 143 150 145 148 147 118
52 62 79 79 85 87 88 101 88 128 109 123 125 127 128 126 127 135 126 123 140 151 146 174 177 172 177 169 171 171 173 149 167 143 144 152 152 141 135 142 154 153 132
36 56 61 68 71 66 67 58 54 65 102 115 125 120 111 118 121 138 141 153 165 181 192 181 176 178 185 180 173 171 134 138 140 147 131 146 159 159 163 160 171 150 133
28 45 51 53 58 57 56 52 50 50 67 74 82 83 86 86 91 105 111 117 157 163 171 162 172 190 194 183 164 145 156 133 135 128 118 133 123 135 150 153 151 138 128
27 45 47 51 51 51 55 57 51 46 61 63 66 66 73 77 82 80 75 81 86 91 116 121 140 137 149 139 146 139 140 147 146 131 117 121 127 135 132 118 128 147 161
32 41 46 47 50 56 60 58 61 62 62 65 63 67 73 72 61 70 78 89 89 95 86 82 85 84 127 130 129 130 144 140 135 135 135 138 157 155 146 142 147 150 156
28 36 41 41 44 50 56 61 52 57 68 69 71 62 63 74 70 65 59 63 72 94 107 107 105 94 310 125 125 125 126 128 143 147 157 160 161 163 157 149 156 174 178
29 29 31 37 52 51 53 58 57 62 60 57 55 55 78 78 76 77 91 81 75 57 45 73 106 120 93 111 121 116 133 131 135 142 156 158 152 168 160 144 159 172 174
35 32 31 39 41 35 44 56 50 52 52 51 59 63 54 58 73 78 56 49 60 83 87 96 88 111 105 115 127 129 119 128 138 142 146 161 159 168 165 149 157 161 202
40 37 44 47 37 40 53 51 46 44 44 48 51 52 51 67 73 79 60 76 72 69 57 58 57 114 153 195 203 185 172 157 158 161 158 168 167 167 166 161 158 183 162
50 44 59 56 43 37 60 55 44 6 46 61 63 60 66 70 69 67 42 60 77 90 84 121 201 193 218 192 219 225 206 196 159 177 169 183 174 170 172 175 178 191 163
65 49 59 59 32 25 31 59 18 23 39 44 36 29 38 45 61 95 121 98 108 114 296 275 262 259 231 216 219 222 222 209 168 168 180 178 167 175 181 189 200 205 160
75 89 86 90 71 40 46 44 18 19 38 44 40 33 39 36 28 24 26 30 26 205 217 223 243 257 271 255 230 228 223 224 195 176 171 181 182 175 177 194 214 176 175
34 47 44 32 32 40 43 48 35 28 47 57 55 49 41 33 24 32 31 34 22 351 347 325 277 249 266 269 233 203 203 206 203 171 181 188 180 183 176 172 190 193 207
83 31 12 20 14 27 18 8 13 30 33 37 31 25 20 23 27 22 5 17 12 340 322 307 285 261 243 270 305 299 239 226 216 198 189 211 200 202 194 192 200 201 207